Regional Weather Roundup
Issued by NWS Kansas City/Pleasant Hill, MO

Home | Current Version | Previous Version | Text Only | Print | Product List | Glossary On
Versions: 1 2 3 4 5 6 7 8 9 10 11 12 13 14 15 16 17 18 19 20 21 22 23 24 25 26 27 28 29 30 31 32 33 34 35 36 37 38 39 40 41 42 43 44 45 46 47 48 49 50
000
ASUS43 KEAX 010911
RWREAX

WEATHER ROUNDUP FOR EASTERN KANSAS AND NORTHWEST MISSOURI
NATIONAL WEATHER SERVICE KANSAS CITY/PLEASANT HILL MO
300 AM CST SUN MAR 01 2015

KSZ040-057-103>105-MOZ028-029-037-043-011000-
...KANSAS CITY METROPOLITAN AREA...

CITY           SKY/WX    TMP DP  RH WIND       PRES   REMARKS
K.C. INTL      CLOUDY    22  19  89 CALM      30.35S
K.C. DOWNTOWN  CLOUDY    24  21  88 NW3       30.37S
LEES SUMMIT    CLOUDY    22  20  92 NW3       30.35S
OLATHE - IXD   CLOUDY    21  19  92 CALM      30.35S
OLATHE - OJC   CLOUDY    22  20  92 CALM      30.33S
LAWRENCE       CLOUDY    22  19  89 NW3       30.37S

$$

MOZ001>008-011>017-020>025-030>033-038>040-044>046-053-054-011000-
...NORTHERN AND CENTRAL MISSOURI...

CITY           SKY/WX    TMP DP  RH WIND       PRES   REMARKS
ST. JOSEPH     CLOUDY    22  19  89 CALM      30.38S
MOSBY          CLOUDY    23  23 100 CALM      30.36F
WARRENSBURG    LGT SNOW  23  21  93 CALM      30.35F
WHITEMAN AFB   LGT SNOW  23  21  92 NE1       30.33F FOG
CLINTON        CLOUDY    27  27 100 CALM      30.35F FOG
SEDALIA        LGT SNOW  24  21  88 CALM      30.34F FOG
WARSAW         NOT AVBL
MARSHALL       LGT SNOW  25  25 100 CALM      30.38
CHILLICOTHE      N/A     23  19  85 CALM      30.37F
MOBERLY        LGT SNOW  23  18  80 CALM      30.36F
KIRKSVILLE     LGT SNOW  20  18  92 NE3       30.35F FOG

$$

MOZ041-047>049-056>058-063>065-088>090-097-011000-
...EASTERN AND SOUTHERN MISSOURI...

CITY           SKY/WX    TMP DP  RH WIND       PRES   REMARKS
ST. LOUIS INTL LGT SNOW  26  23  88 CALM      30.37S FOG
SPIRIT OF STL  LGT SNOW  26  23  88 CALM      30.36F FOG
COLUMBIA       LGT SNOW  24  22  91 CALM      30.34F FOG
JEFFERSON CITY LGT SNOW  25  23  92 CALM      30.37S FOG
MEXICO         LGT SNOW N/A N/A N/A CALM      30.35F
ROLLA          CLOUDY    25  22  88 CALM      30.30F
LEBANON        CLOUDY    27  25  93 CALM      30.30F FOG
OSAGE BEACH    CLOUDY    27  23  86 CALM      30.34S
SPRINGFIELD    CLOUDY    27  25  92 CALM      30.29F
BRANSON        MOCLDY    30  28  93 CALM      30.30F FOG
NEVADA         CLOUDY    23  23 100 CALM      30.36S FOG
JOPLIN         CLOUDY    27  26  96 CALM      30.33S FOG
WEST PLAINS    FRZ RAIN  28  26  92 S5        30.30F FOG     WCI  23

$$

IAZ060-094-KSZ022-034>040-054-083-096-NEZ052-066-093-011000-
...KANSAS...SOUTHEAST NEBRASKA AND IOWA...

CITY           SKY/WX    TMP DP  RH WIND       PRES   REMARKS
TOPEKA         CLOUDY    23  19  85 CALM      30.36F
MANHATTAN      MOCLDY    20  18  92 CALM      30.35F
EMPORIA        CLOUDY    21  19  92 CALM      30.33F
CHANUTE        CLOUDY    23  22  96 N3        30.35S FOG
WICHITA        FOG       23  20  88 CALM      30.32F VSB 1/4
OMAHA          CLOUDY    22  14  71 SW8       30.34F WCI  12
LINCOLN        PTCLDY    20  14  77 SW3       30.34F
FALLS CITY     CLOUDY    20  17  88 CALM      30.35F
LAMONI         CLOUDY    19  17  92 CALM      30.34F
DES MOINES     FLURRIES  21  16  81 S5        30.35F WCI  15

$$



USA.gov is the U.S. government's official web portal to all federal, state and local government web resources and services.